Theta_e
321 325 335 338 344 348 356 353 346 347 350 349 345 343 345 344 353 348 347 346 341 341 341 341 345 345 346 337 343 343 343 343 343 342 342 341 339 338 337 336 337 337 336 335 334 333 332 332 333
321 325 336 337 335 352 355 349 348 344 345 344 349 347 348 347 341 348 347 346 341 340 342 342 344 345 343 341 344 344 343 343 342 342 344 340 339 338 338 338 337 335 335 334 333 332 331 330 329
321 325 325 329 329 352 356 350 350 346 343 345 356 353 348 343 340 345 346 344 342 342 342 342 344 343 340 342 343 343 343 343 343 343 341 339 338 337 336 335 334 333 333 332 331 330 329 328 327
326 327 326 330 331 349 349 348 346 344 344 344 352 351 343 338 341 345 343 342 343 342 343 343 343 343 342 344 343 343 342 342 343 341 339 338 337 336 334 332 331 330 330 330 330 330 330 330 329
326 325 328 329 329 344 345 345 343 345 349 347 355 357 356 341 346 343 342 343 344 343 343 342 342 344 344 344 344 344 343 342 342 339 338 337 336 334 331 330 330 331 333 334 334 334 332 331 333
319 323 328 330 330 340 346 345 352 349 342 347 358 357 353 340 344 342 342 345 345 342 344 344 345 344 344 343 344 344 344 343 341 338 337 336 334 331 330 330 335 338 339 339 339 337 336 335 337
317 320 324 326 329 333 347 344 351 347 346 351 353 356 349 340 341 341 343 345 342 339 343 344 344 345 344 343 344 343 344 343 340 337 335 333 331 329 331 339 340 340 340 339 338 337 336 336 336
318 319 322 324 326 327 344 344 344 349 345 354 349 355 351 339 341 340 342 341 341 341 343 343 344 344 343 342 342 342 343 339 336 335 333 331 329 332 340 343 339 340 338 337 336 336 336 337 338
317 316 319 320 323 326 338 346 347 343 352 355 354 350 345 338 339 339 340 341 342 341 341 342 342 339 336 336 338 336 336 335 334 333 330 329 333 338 343 344 341 339 339 339 339 338 338 339 342
314 313 316 319 322 323 326 346 352 351 348 354 353 349 341 338 337 338 338 340 340 341 342 341 340 337 337 334 332 333 333 332 331 329 338 331 339 341 346 346 342 341 340 342 342 340 343 343 340
313 313 315 318 320 322 320 342 347 354 356 350 352 346 338 337 336 338 338 338 341 340 340 341 340 340 341 341 332 330 331 331 336 341 345 345 343 342 343 345 337 343 344 343 342 342 344 341 340
313 315 316 317 319 318 319 343 342 348 348 354 350 342 339 338 337 339 339 337 339 337 339 338 340 339 340 343 338 335 341 340 343 344 345 342 339 337 339 344 341 346 344 342 340 340 340 340 339
314 314 316 316 316 316 318 326 342 339 349 345 345 345 342 341 339 339 340 339 338 337 338 340 339 340 342 343 339 339 341 341 342 344 342 341 344 348 346 345 344 342 342 340 340 339 339 339 339
315 315 316 316 315 316 318 331 350 348 344 343 347 347 344 342 339 337 337 336 336 336 338 340 339 339 342 342 340 341 342 342 343 342 341 341 345 346 344 344 342 342 340 339 338 337 337 337 337
315 315 315 316 316 316 318 318 336 345 345 345 344 346 345 341 341 336 334 333 334 335 337 340 339 338 341 343 341 340 340 340 341 341 341 340 342 342 340 339 340 339 338 336 335 335 334 333 333
314 315 314 315 317 318 318 318 347 343 341 346 349 350 347 342 337 336 334 335 335 335 339 339 338 339 341 345 343 340 341 341 340 339 338 336 336 337 334 335 336 334 330 328 328 326 325 326 324
314 314 318 317 317 317 319 319 341 347 341 342 342 349 347 340 337 337 335 336 335 335 336 341 340 340 346 345 342 341 339 337 334 333 333 330 330 332 330 331 331 327 325 325 324 324 321 320 318
315 315 317 321 321 321 320 321 328 354 355 349 345 348 346 342 338 338 338 338 338 340 339 343 345 344 343 342 339 339 335 333 331 330 329 326 326 327 325 325 325 322 322 322 322 319 317 317 314
316 317 318 321 321 320 319 322 328 330 351 354 351 350 348 343 341 339 340 339 339 340 341 341 342 342 342 340 337 336 332 330 327 326 326 324 322 322 319 319 318 317 315 313 312 318 319 314 308
316 316 318 320 321 320 318 320 329 331 348 352 351 350 348 346 343 341 340 341 340 340 340 340 340 340 340 338 337 335 329 325 324 324 321 319 318 317 316 316 315 315 312 310 312 315 317 312 310
318 319 319 319 320 319 319 318 320 327 344 349 350 349 347 347 346 344 340 339 340 340 340 339 338 338 338 337 336 333 325 321 321 318 316 314 314 314 314 313 311 311 311 308 310 310 311 314 312
318 319 320 319 318 317 319 317 317 322 343 345 350 348 348 341 339 345 341 339 339 339 339 339 338 336 337 336 331 327 323 321 319 315 314 312 312 310 311 310 309 309 308 309 309 310 310 310 310
330 329 319 319 318 322 321 318 316 318 319 333 347 349 347 344 343 344 342 338 338 338 338 337 336 335 332 329 328 326 325 322 317 314 312 311 311 311 311 311 310 309 308 308 309 309 309 309 308
328 329 329 322 321 321 322 323 321 331 332 331 328 333 342 343 342 341 342 336 335 336 335 335 334 331 329 328 327 326 320 316 314 313 311 310 309 310 311 310 309 308 308 308 307 307 308 308 308
322 328 333 335 332 324 330 333 334 331 330 331 329 330 338 333 335 340 339 334 334 332 330 330 328 326 325 325 323 323 319 315 315 312 311 309 309 310 309 309 308 308 307 306 307 306 304 306 307
316 329 331 342 343 334 330 337 336 328 326 325 326 325 336 339 334 341 336 333 328 327 325 323 322 321 320 319 317 316 315 314 313 315 314 310 309 309 309 308 306 307 306 306 305 305 306 304 305
314 315 322 330 326 332 330 330 334 327 326 326 325 324 324 336 338 336 330 326 324 322 320 319 319 318 317 317 316 315 315 315 312 311 310 309 308 308 307 306 305 305 305 304 305 305 304 306 304
312 313 313 326 330 334 330 337 335 328 325 325 324 323 324 325 333 330 327 323 320 319 318 317 317 316 315 314 312 311 311 311 311 311 308 307 307 306 306 305 305 305 305 305 304 304 304 304 304
315 315 317 318 329 334 338 337 327 325 323 324 324 324 324 324 328 326 322 319 318 318 317 316 315 314 313 312 310 309 309 309 310 310 308 307 306 305 305 304 305 305 304 303 303 303 303 303 303
317 320 321 325 321 323 329 325 322 321 320 320 321 323 324 325 323 321 318 317 317 316 314 310 310 309 309 308 309 308 307 307 308 308 308 307 306 304 304 303 304 304 304 303 302 302 302 302 302
Wind_Speed
9 6 2 2 2 5 2 5 6 16 13 13 14 12 10 6 5 5 24 33 35 32 27 25 25 22 21 22 24 23 22 22 20 19 18 19 18 17 16 15 14 14 13 13 13 12 12 11 11
8 5 8 2 2 3 3 1 11 16 16 16 21 16 8 5 9 21 19 33 34 33 29 26 26 23 22 25 24 22 21 20 19 18 17 17 16 15 13 12 11 11 11 10 10 10 9 9 9
12 7 1 4 4 5 4 7 8 19 21 6 2 12 6 7 16 9 39 33 34 31 29 27 27 24 25 26 23 21 20 19 18 16 16 14 13 12 11 10 9 9 9 8 8 8 8 7 8
5 2 4 3 12 5 7 12 14 32 16 14 13 11 7 21 15 26 37 37 33 30 30 26 27 26 25 25 23 20 19 18 16 15 14 12 10 9 8 8 8 7 7 7 6 6 6 5 6
11 2 3 5 13 9 9 5 13 11 16 18 11 11 4 20 38 42 39 38 36 31 30 26 26 25 27 24 22 20 18 17 15 14 12 10 9 7 7 6 6 5 4 5 4 3 3 4 3
2 2 3 8 17 5 3 13 13 6 18 24 15 15 4 25 36 36 37 39 31 32 32 28 26 26 27 25 22 20 17 16 14 13 11 9 7 6 6 5 5 4 3 3 3 3 2 2 2
6 2 7 11 18 7 6 24 14 27 23 14 19 11 11 15 30 36 35 39 31 32 32 29 28 26 27 25 23 21 18 16 14 12 10 8 7 6 5 4 4 3 3 3 4 4 3 1 1
5 3 9 12 17 14 16 13 25 28 22 11 15 8 18 19 33 31 42 37 34 30 31 31 29 28 27 26 23 21 18 15 13 11 10 9 8 8 5 5 4 4 5 5 5 5 4 4 5
6 5 11 13 19 13 7 7 21 24 22 13 16 18 28 38 35 36 37 35 35 29 27 28 29 26 25 24 21 18 16 14 12 10 9 9 8 7 3 3 1 1 1 3 4 4 5 7 11
4 4 10 14 18 13 10 10 19 4 6 3 16 20 39 38 31 28 26 29 29 33 34 27 27 26 24 22 21 17 15 14 12 12 7 5 3 8 6 5 2 3 2 2 6 8 8 8 11
8 11 11 19 19 12 12 4 1 20 5 9 7 26 26 28 25 28 30 28 30 34 34 33 28 28 29 21 19 18 16 15 13 11 7 3 4 7 10 10 8 7 5 3 4 12 5 6 7
8 13 15 18 18 10 13 4 4 3 9 20 9 18 16 19 15 27 29 29 33 31 34 36 30 31 32 22 17 21 19 19 17 15 12 9 3 5 5 5 8 3 3 4 6 9 4 3 3
7 10 14 13 11 9 10 4 6 10 18 33 13 5 12 12 11 22 32 34 34 29 32 34 31 30 23 25 18 20 20 20 21 17 12 10 4 3 8 7 6 8 5 2 1 4 7 7 4
9 9 11 10 11 8 7 5 9 5 13 19 15 8 11 9 15 20 30 31 36 36 35 34 27 29 15 26 21 16 23 25 23 22 18 15 6 6 6 5 4 3 2 2 2 4 4 4 5
10 10 11 8 9 10 7 10 7 18 18 17 18 12 12 11 20 19 24 32 37 37 33 36 34 28 16 13 17 17 16 17 17 15 13 10 6 5 6 2 3 2 1 3 5 6 5 5 7
9 6 6 9 10 12 5 8 14 24 19 15 12 13 17 16 12 25 32 31 37 33 35 32 28 27 18 19 17 16 15 15 12 9 7 7 7 7 5 4 3 1 2 2 4 4 6 6 7
6 7 10 10 10 9 8 9 12 25 20 18 21 23 20 12 12 24 29 27 33 31 34 26 30 27 24 21 16 17 17 16 14 11 8 8 7 9 5 2 2 4 4 4 5 3 5 8 8
8 7 9 11 8 13 13 10 10 27 23 25 24 23 19 16 14 26 29 28 29 30 29 23 30 29 24 20 16 20 18 18 17 15 10 7 5 7 6 3 4 4 5 4 4 2 5 4 11
14 13 13 15 13 5 15 17 12 15 20 22 21 20 18 13 8 26 31 29 29 28 25 22 30 29 29 25 21 21 22 19 16 12 8 6 5 7 10 6 3 1 0 2 2 5 5 6 10
16 16 16 9 10 5 10 8 11 8 18 27 24 18 14 16 5 7 22 31 29 29 27 24 29 30 30 27 19 23 23 18 16 9 7 6 5 6 6 6 5 4 3 5 6 7 7 9 13
8 6 6 8 13 7 7 8 6 5 12 19 18 12 12 18 15 9 13 19 25 29 30 27 28 27 26 25 18 22 25 21 15 10 11 9 6 6 6 6 9 10 5 8 8 10 11 9 12
5 10 10 10 7 9 3 9 8 6 9 15 18 24 23 21 18 18 20 24 26 20 29 24 23 23 21 20 21 29 26 20 14 18 11 11 6 8 7 8 8 6 7 8 10 11 14 14 14
14 26 10 11 8 3 9 3 8 8 9 9 16 24 27 26 26 27 24 32 27 27 24 25 27 25 18 21 22 20 15 19 25 19 14 14 12 11 11 10 11 11 12 11 8 11 16 17 18
10 25 12 6 1 4 4 7 6 8 12 25 26 18 20 29 30 29 28 30 31 32 25 28 26 20 18 13 19 19 27 29 25 20 16 17 14 13 11 10 12 11 10 10 11 11 12 15 18
15 14 6 6 5 3 20 9 5 15 17 18 25 30 16 31 24 21 23 23 30 28 30 32 25 19 17 18 16 17 24 24 17 17 19 21 19 15 12 10 10 11 11 12 12 14 15 13 17
15 6 2 5 6 11 17 6 3 14 18 25 28 31 42 34 19 20 22 27 31 31 31 34 32 22 20 21 21 21 22 20 15 8 18 24 21 16 11 11 11 10 10 10 11 13 14 15 14
8 5 8 14 15 4 7 9 5 23 24 25 27 29 31 21 12 18 21 32 27 31 33 35 31 26 22 21 20 18 15 21 20 19 26 23 17 17 14 11 10 10 10 8 8 12 13 13 12
8 9 7 1 5 4 3 4 5 14 16 18 20 20 24 25 10 10 15 25 34 32 32 34 32 29 26 23 24 24 23 21 19 23 23 22 19 16 13 11 10 8 7 7 11 10 10 14 13
10 7 6 2 2 2 3 2 3 4 8 10 9 13 17 20 16 14 16 28 30 28 29 29 32 31 26 25 28 27 23 20 22 23 21 20 16 15 12 10 9 8 8 10 11 10 9 11 10
11 10 11 4 8 3 4 2 4 3 3 6 8 7 9 11 9 5 14 21 22 24 24 28 31 34 33 31 29 23 21 20 19 18 17 16 16 13 13 11 10 10 8 8 10 10 8 8 8
Wind_Direction
296 313 161 233 37 70 142 240 254 278 321 355 69 79 99 114 141 165 125 138 136 137 134 133 130 125 124 124 119 116 115 116 115 114 113 109 105 103 99 97 94 91 89 85 81 75 69 67 66
291 290 204 278 169 94 246 186 269 274 268 314 96 102 84 67 116 122 117 133 139 136 138 134 130 130 133 127 123 121 122 121 121 123 117 114 111 106 101 97 94 92 87 81 77 71 66 58 57
293 264 116 185 206 170 176 159 261 281 281 268 343 88 80 114 123 113 133 139 130 137 137 134 134 134 132 130 126 127 127 127 127 127 122 118 113 109 104 99 94 90 85 77 71 64 55 48 48
299 345 290 206 258 182 165 159 163 243 306 302 135 84 95 134 125 131 137 132 136 141 139 141 136 136 133 132 132 132 132 134 135 132 127 123 117 109 103 98 93 88 81 77 68 59 50 40 46
256 280 256 274 256 149 202 123 199 255 287 284 125 118 75 125 125 135 138 138 141 143 140 140 137 139 139 139 136 136 136 140 141 138 135 131 125 114 104 97 91 79 70 65 56 43 37 35 26
290 147 256 273 275 167 52 105 124 192 243 268 105 121 104 143 134 141 141 141 149 146 145 142 144 146 146 147 143 143 142 144 147 146 142 138 128 117 108 98 83 67 48 43 43 38 31 39 33
217 280 258 270 274 253 153 124 171 200 235 237 133 127 140 158 145 144 138 146 145 149 148 150 149 151 154 153 152 152 153 159 153 150 146 147 137 128 115 96 74 57 50 56 63 68 68 68 314
228 213 264 267 275 288 162 133 193 189 238 188 153 148 158 161 154 143 133 137 144 150 154 153 156 158 159 160 163 160 161 159 157 157 155 158 155 153 147 131 83 69 69 68 63 57 35 356 341
284 258 257 254 265 287 231 147 208 190 212 193 189 151 153 156 158 135 137 140 144 149 156 162 163 162 161 164 167 164 165 164 164 163 167 175 174 172 177 170 72 285 73 56 29 22 2 337 333
189 246 246 260 271 278 301 104 152 128 274 203 131 147 149 156 154 145 143 145 150 156 163 167 164 163 162 170 170 173 173 173 170 167 163 186 239 242 223 212 242 273 218 94 15 358 335 349 4
248 252 264 269 277 298 317 337 91 128 202 25 160 142 150 158 159 150 153 159 155 162 165 169 167 169 169 167 167 175 176 172 171 174 154 213 288 223 212 223 243 259 249 325 329 2 27 7 354
220 250 262 266 271 293 287 111 300 193 118 52 267 137 152 163 168 159 157 157 158 174 170 171 170 172 176 169 171 174 177 178 168 167 183 209 237 214 267 228 213 309 36 48 70 56 32 333 334
227 245 257 265 274 263 283 287 122 97 101 100 316 206 172 173 151 165 156 158 167 179 170 166 166 165 164 173 176 180 188 192 189 180 177 190 219 160 107 122 110 129 157 88 93 328 351 340 305
260 260 255 277 288 297 269 156 97 131 121 138 144 253 186 204 169 184 162 162 165 177 171 164 168 178 165 171 176 143 153 149 153 164 168 187 183 165 97 89 137 147 132 65 350 338 338 331 303
281 299 293 286 284 273 289 311 144 144 158 158 164 187 213 196 189 194 171 160 171 173 171 164 168 178 170 150 150 149 136 144 152 151 158 174 174 151 99 111 170 130 266 270 282 278 282 292 278
308 302 255 260 267 283 272 261 141 161 154 161 167 204 210 194 163 140 144 143 153 153 154 161 165 171 171 163 143 141 138 149 148 158 164 173 175 146 112 156 169 152 167 320 289 312 324 309 305
296 265 256 269 236 249 233 243 119 169 171 163 191 187 216 181 140 137 145 141 145 153 150 151 162 165 155 152 148 148 133 126 130 141 153 156 170 148 123 171 161 168 209 241 278 294 351 347 320
270 299 308 292 287 249 261 224 213 172 170 174 194 198 189 162 149 142 148 148 150 152 157 151 159 164 164 165 152 147 137 140 138 132 145 154 157 148 126 162 177 193 238 266 286 233 88 21 332
243 266 269 271 281 338 303 221 205 214 171 169 181 169 185 158 138 151 151 156 154 160 159 159 159 167 167 165 155 150 145 147 138 136 153 163 154 128 121 136 146 120 88 67 55 155 121 48 358
233 245 258 273 295 305 299 299 252 205 173 176 182 180 142 147 169 156 152 153 161 166 164 159 160 160 169 164 157 163 154 150 147 152 149 136 134 133 154 149 116 120 90 102 88 97 102 73 43
282 273 289 284 296 296 304 302 285 250 185 177 181 153 144 145 145 177 174 172 164 170 169 165 168 162 161 167 168 159 141 131 131 141 125 116 131 145 145 129 130 111 88 89 83 81 77 85 68
263 262 274 279 274 271 192 281 297 300 190 187 157 171 176 171 194 170 181 174 173 163 178 167 176 172 165 174 161 156 149 142 149 139 132 125 104 106 101 109 111 106 106 101 92 86 84 97 75
0 346 264 249 266 293 315 348 290 317 305 230 180 184 183 187 183 185 184 173 160 158 172 174 168 169 157 158 159 152 155 149 147 137 132 125 113 104 104 101 98 87 89 85 102 96 84 83 75
349 2 340 314 189 286 263 319 288 27 3 14 6 335 209 185 187 190 182 149 147 161 159 163 161 152 153 137 153 149 140 137 136 142 139 133 126 116 111 111 103 104 94 88 79 87 97 90 84
8 30 350 347 348 259 9 342 75 335 14 9 7 352 324 201 186 173 156 148 143 150 135 139 139 134 130 122 116 131 144 142 142 148 148 146 133 118 110 109 113 102 100 92 83 79 80 89 83
332 88 313 315 338 299 312 254 316 356 5 12 16 5 2 184 177 149 148 140 135 129 122 126 127 123 120 121 118 110 125 132 125 146 170 149 135 129 124 112 104 104 100 101 96 92 81 71 88
312 308 226 195 255 318 267 278 327 348 1 8 12 12 12 5 92 144 129 121 115 121 127 125 124 125 125 121 121 112 125 126 106 104 132 131 127 122 118 116 116 112 99 91 104 99 89 88 78
347 304 336 117 197 250 278 66 334 350 339 359 11 16 9 7 8 117 108 118 127 122 123 128 128 130 127 123 116 109 113 115 108 124 124 124 124 122 117 118 106 106 85 86 93 96 92 86 79
340 9 354 334 95 299 293 253 247 326 345 356 4 22 23 6 6 335 103 108 112 123 126 125 130 131 134 124 116 111 107 108 106 107 115 115 110 111 114 115 110 100 91 94 101 100 93 88 84
22 27 30 46 321 276 187 304 35 336 313 342 2 36 55 30 53 45 68 101 118 111 111 101 111 117 124 121 118 120 116 114 115 119 115 124 124 126 127 125 123 114 109 106 85 105 91 93 83